Location: Mainz-Finthen
(49.9906°N, 8.1713°E)
Time: 22:50:12
(UTC+00:00)

BEESAT - Pass Details

Date: 13 December 2021
Orbit: 699 x 708 km, 98.6° (Epoch: 25 January)

Event Time Altitude Azimuth Distance (km) Brightness Sun altitude
Rises 06:24:44 0° 171° (S) 3,087 ? -8.1°
Reaches altitude 10° 06:26:59 10° 174° (S) 2,174 ? -7.7°
Maximum altitude 06:31:44 66° 257° (WSW) 775 ? -7.1°
Drops below altitude 10° 06:36:31 10° 340° (NNW) 2,194 ? -6.4°
Sets 06:38:49 0° 344° (NNW) 3,118 ? -6.1°
